Home   Weather   Bergen   Past weeks

Flag for Norway Past Weather in Bergen, Norway — Yesterday and Last 2 Weeks

Now
47 °F

Cool.


Feels Like: 46 °F
Forecast: 44 / 45 °F
Wind: 3 mph from West

Location: Bergen / Florida

Current Time: Jan 19, 2017 at 3:41:53 am

Latest Report: Jan 19, 2017 at 2:00 am


Visibility: N/A

Pressure: 30.35 "Hg

Humidity: 90%

Dew Point: 44 °F

Location of BergenLocation

Past Weather in Bergen — Graph

°F

Bergen Temperature Yesterday

Maximum temperature yesterday: 45 °F (at 11:00 pm)
Minimum temperature yesterday: 43 °F (at 12:00 am)
Average temperature yesterday: 44 °F

High & Low Weather Summary for the Past Weeks

 TemperatureHumidityPressure
High47 °F (Jan 19, 2:00 am)91% (Jan 19, 12:00 am)30.59 "Hg (Jan 19, 12:00 am)
Low20 °F (Jan 16, 7:00 am)33% (Jan 16, 6:00 pm)28.56 "Hg (Jan 11, 9:00 am)
Average36 °F79%29.87 "Hg
* Reported Jan 4 2:00 am — Jan 19 2:00 am, Bergen, Weather by CustomWeather, © 2017

Note: Actual official high and low records may vary slightly from our data, if they occured in-between our weather recording intervals... More about our weather records

Advertising

Bergen Weather History for the Previous 24 Hours

Scroll right to see more
 ConditionsComfort  
Time TempWeatherWind HumidityBarometerVisibility
2:00 am
Thu, Jan 19
47 °FCool.3 mph90%30.35 "HgN/A
1:00 am46 °FCool.2 mph90%30.36 "HgN/A
12:00 am46 °FCool.3 mph91%30.36 "HgN/A
11:00 pm
Wed, Jan 18
45 °FCool.2 mph90%30.37 "HgN/A
10:00 pm45 °FRain. Low clouds.2 mph90%30.37 "Hg3 mi
9:00 pm45 °FQuite cool.5 mph90%30.37 "HgN/A
8:00 pm45 °FQuite cool.3 mph90%30.37 "HgN/A
7:00 pm45 °FLight rain. Low clouds.3 mph90%30.36 "Hg4 mi
6:00 pm45 °FQuite cool.6 mph90%30.36 "HgN/A
5:00 pm44 °FQuite cool.5 mph90%30.37 "HgN/A
4:00 pm44 °FRain. Low clouds.6 mph90%30.37 "Hg2 mi
3:00 pm45 °FQuite cool.5 mph90%30.38 "HgN/A
2:00 pm44 °FQuite cool.6 mph90%30.37 "HgN/A
1:00 pm44 °FDrizzle. Low clouds.5 mph90%30.37 "Hg1 mi
12:00 pm44 °FQuite cool.3 mph90%30.37 "HgN/A
11:00 am45 °FQuite cool.5 mph90%30.38 "HgN/A
10:00 am45 °FDrizzle. Low clouds.5 mph90%30.37 "Hg19 mi
9:00 am44 °FQuite cool.5 mph90%30.36 "HgN/A
8:00 am44 °FQuite cool.6 mph90%30.36 "HgN/A
7:00 am44 °FRain. Overcast.6 mph90%30.36 "Hg6 mi
6:00 am43 °FQuite cool.3 mph90%30.36 "HgN/A
5:00 am43 °FQuite cool.3 mph89%30.38 "HgN/A
4:00 am43 °FQuite cool.3 mph89%30.37 "HgN/A
3:00 am43 °FQuite cool.3 mph89%30.39 "HgN/A
Weather by CustomWeather, © 2017

See weather overviewHow to use our weather pages